User: anonymous   Login
Location: Hungerford
(51.4167°N, 1.5167°W)
Time: 19:05:41
(UTC+00:00)
Language:

Cosmos 1766 - Orbit

View from above orbital plane
View from above orbital plane
View from above satellite
View from above satellite

Ground track
Ground track

The orbit data is extracted from the following two-line orbital elements,

1 16881U 86055A   20330.87730135 +.00001639 +00000-0 +95552-4 0  9999
2 16881 082.5082 232.2887 0018204 092.1756 268.1559 15.11163554850155
Epoch (UTC): 25 November 2020 21:03:18
Eccentricity: 0.0018204
inclination: 82.5082°
perigee height: 520 km
apogee height: 545 km
right ascension of ascending node: 232.2887°
argument of perigee: 92.1756°
revolutions per day: 15.11163554
mean anomaly at epoch: 268.1559°
orbit number at epoch: 85015

The dashed part of the orbit path shows where the satellite is in the earth's shadow,  

DLR